Seattle, WA
on Wednesday, January 23, 2013

Wednesday
Previous Day Next Day
Daily Summary
 ActualAverageRecord
Temperature
Mean Temperature °F 43°F  
Max Temperature 45°F 48°F 56°F (2001)
Min Temperature 36°F 37°F 16°F (1949)
Degree Days
Heating Degree Days 24 22  
Month to date heating degree days 649 534  
Since 1 July heating degree days 2400 2472  
Cooling Degree Days 0 0  
Month to date cooling degree days 0 0  
Year to date cooling degree days 0 0  
Moisture
Dew Point 35°F   
Average Humidity 73    
Maximum Humidity 100    
Minimum Humidity 45    
Precipitation
Precipitation 0.20 in 0.17 in 1.36 in (1959)
Month to date precipitation 2.91 4.29  
Year to date precipitation 2.91 4.29  
Snow
Snow 0.00 in in 3.00 in (1952)
Month to date snowfall T  
Since 1 July snowfall 0.6  
Snow Depth 0.00 in   
Wind
Wind Speed 7 mph   
Max Wind Speed 18 mph   
Max Gust Speed 23 mph   
Visibility 8 miles   
Events Rain   

Key: T is trace of precipitation, MM is missing value
Source: NWS Daily Summary
Time(PST)TemperatureDew PointHumidity Pressure Visibility Wind DirectionWind SpeedGust SpeedPrecipitationEvents Conditions
12:53 AM 37.0°F 33.1°F 86% 29.94 in 7.0 miles ESE 4.6 mph - N/A   Overcast
1:53 AM 37.0°F 33.1°F 86% 29.97 in 7.0 miles SE 6.9 mph - N/A   Overcast
2:53 AM 39.0°F 33.1°F 79% 29.97 in 10.0 miles South 3.5 mph - N/A   Overcast
3:53 AM 39.0°F 32.0°F 76% 29.96 in 10.0 miles Calm Calm - N/A   Overcast
4:53 AM 41.0°F 30.0°F 65% 29.96 in 10.0 miles East 5.8 mph - N/A   Overcast
5:53 AM 42.1°F 27.0°F 55% 29.93 in 10.0 miles ESE 3.5 mph - N/A   Overcast
6:53 AM 43.0°F 26.1°F 51% 29.91 in 10.0 miles East 8.1 mph - N/A   Overcast
7:53 AM 41.0°F 27.0°F 57% 29.92 in 10.0 miles SSE 5.8 mph - N/A   Overcast
8:53 AM 44.1°F 24.1°F 45% 29.90 in 10.0 miles ESE 5.8 mph - N/A   Overcast
9:53 AM 44.1°F 28.0°F 53% 29.91 in 10.0 miles Calm Calm - N/A   Overcast
10:53 AM 43.0°F 35.1°F 74% 29.92 in 10.0 miles South 5.8 mph - 0.00 in Rain Light Rain
11:53 AM 42.1°F 33.1°F 70% 29.89 in 7.0 miles ESE 4.6 mph - 0.02 in Rain Light Rain
12:53 PM 42.1°F 34.0°F 73% 29.88 in 7.0 miles SE 8.1 mph - 0.03 in Rain Light Rain
1:33 PM 41.0°F 35.6°F 81% 29.85 in 7.0 miles SSE 4.6 mph - 0.02 in Rain Light Rain
1:53 PM 41.0°F 37.0°F 86% 29.87 in 7.0 miles South 4.6 mph - 0.02 in Rain Light Rain
2:10 PM 41.0°F 37.4°F 87% 29.85 in 9.0 miles Variable 4.6 mph - 0.01 in Rain Light Rain
2:53 PM 41.0°F 39.0°F 93% 29.90 in 3.0 miles SW 4.6 mph - 0.05 in Rain Light Rain
3:00 PM 41.0°F 39.2°F 93% 29.88 in 3.0 miles SSW 5.8 mph - 0.01 in Rain Light Rain
3:12 PM 41.0°F 39.2°F 93% 29.89 in 2.0 miles SW 5.8 mph - 0.01 in Rain Light Rain
3:43 PM 39.2°F 39.2°F 100% 29.90 in 2.0 miles SSW 4.6 mph - 0.03 in Rain Light Rain
3:53 PM 39.9°F 39.0°F 97% 29.94 in 2.0 miles Calm Calm - 0.05 in Rain Light Rain
4:50 PM 39.2°F 37.4°F 93% 29.92 in 5.0 miles South 11.5 mph - 0.03 in Rain Light Rain
4:53 PM 41.0°F 37.9°F 89% 29.95 in 5.0 miles South 11.5 mph - 0.03 in Rain Light Rain
5:14 PM 41.0°F 39.2°F 93% 29.93 in 7.0 miles South 10.4 mph - 0.00 in Rain Light Rain
5:53 PM 42.1°F 39.0°F 89% 29.97 in 10.0 miles SSW 12.7 mph - 0.00 in   Overcast
6:53 PM 42.1°F 37.9°F 85% 30.00 in 10.0 miles South 11.5 mph - 0.00 in Rain Light Rain
7:53 PM 42.1°F 39.0°F 89% 30.04 in 10.0 miles SSW 10.4 mph - 0.00 in   Overcast
8:53 PM 42.1°F 37.9°F 85% 30.07 in 10.0 miles SW 11.5 mph - N/A   Overcast
9:53 PM 42.1°F 37.9°F 85% 30.10 in 10.0 miles South 13.8 mph - N/A   Overcast
10:53 PM 42.1°F 37.9°F 85% 30.13 in 10.0 miles SSW 12.7 mph - N/A   Overcast
11:53 PM 42.1°F 37.9°F 85% 30.16 in 10.0 miles South 13.8 mph - N/A   Mostly Cloudy
Moon Phase
Jan. 23 Jan. 26 Feb. 03 Feb. 10 Feb. 17
Sunrise:07:45 AM (PST) Moon Rise:02:09 PM (PST)1/23
Sunset:04:57 PM (PST) Moon Set:05:04 AM (PST)1/23

Copyright © 2014 The Weather Underground, Inc.